This is the latest recevied weather packets stored in our database for station/object KG5TTF. If no packets are shown the sender has not sent any weather packets the latest 10 day(s).
| Time | Temp. | Humidity | Pressure | Rain* | Wind** | Luminosity | Snow |
|---|---|---|---|---|---|---|---|
| 1777915145 | 18.89° C | 21% | 1014.6 hPa | 0 mm | - | 700 W/m² | - |
| 1777914842 | 19.44° C | 21% | 1014.6 hPa | 0 mm | - | 635 W/m² | - |
| 1777914539 | 18.89° C | 21% | 1014.6 hPa | 0 mm | - | 584 W/m² | - |
| 1777914235 | 18.89° C | 21% | 1014.6 hPa | 0 mm | - | 712 W/m² | - |
| 1777913932 | 18.89° C | 22% | 1014.7 hPa | 0 mm | - | 591 W/m² | - |
| 1777913629 | 18.89° C | 23% | 1014.9 hPa | 0 mm | - | 754 W/m² | - |
| 1777913325 | 18.89° C | 22% | 1014.6 hPa | 0 mm | - | 763 W/m² | - |
| 1777913022 | 18.89° C | 22% | 1014.6 hPa | 0 mm | - | 605 W/m² | - |
| 1777912718 | 18.89° C | 22% | 1014.9 hPa | 0 mm | - | 675 W/m² | - |
| 1777912414 | 18.89° C | 22% | 1014.8 hPa | 0 mm | - | 652 W/m² | - |
| 1777912111 | 18.89° C | 23% | 1014.7 hPa | 0 mm | - | 737 W/m² | - |
| 1777911806 | 18.89° C | 23% | 1015.1 hPa | 0 mm | - | 718 W/m² | - |
| 1777911503 | 18.89° C | 23% | 1015.1 hPa | 0 mm | - | 689 W/m² | - |
| 1777911200 | 18.33° C | 23% | 1014.8 hPa | 0 mm | - | 676 W/m² | - |
| 1777910898 | 18.33° C | 22% | 1014.9 hPa | 0 mm | - | 658 W/m² | - |
| 1777910595 | 18.33° C | 23% | 1015.1 hPa | 0 mm | - | 643 W/m² | - |
| 1777910291 | 18.89° C | 22% | 1015.1 hPa | 0 mm | - | 632 W/m² | - |
| 1777909988 | 17.78° C | 23% | 1014.9 hPa | 0 mm | - | 619 W/m² | - |
| 1777909685 | 18.33° C | 23% | 1015.1 hPa | 0 mm | - | 601 W/m² | - |
| 1777909382 | 17.78° C | 22% | 1015.1 hPa | 0 mm | - | 583 W/m² | - |
| 1777909080 | 17.22° C | 24% | 1015.1 hPa | 0 mm | - | 567 W/m² | - |
| 1777908778 | 16.67° C | 26% | 1014.9 hPa | 0 mm | - | 541 W/m² | - |
| 1777908475 | 16.67° C | 26% | 1015.3 hPa | 0 mm | - | 526 W/m² | - |
| 1777908171 | 16.11° C | 25% | 1015.2 hPa | 0 mm | - | 510 W/m² | - |
| 1777907867 | 16.11° C | 25% | 1015.3 hPa | 0 mm | - | 447 W/m² | - |
* Rain latest hour (hover to see other rain measurements)
** Current wind speed in m/s (hover to see current wind gust speed)